Regional Weather Roundup
Issued by NWS

Home | Current Version | Previous Version | Text Only | Print | Product List | Glossary Off
Versions: 1 2 3 4 5 6 7 8 9 10 11 12 13 14 15 16 17 18 19 20 21 22 23 24 25 26 27 28 29 30 31 32 33 34 35 36 37 38 39 40 41 42 43 44 45 46 47 48 49 50

000
ASUS43 KLOT 281803
RWRIL

ILLINOIS REGIONAL WEATHER ROUNDUP
NATIONAL WEATHER SERVICE CHICAGO/ROMEOVILLE IL
100 PM CDT SUN AUG 28 2016

NOTE: "FAIR" INDICATES FEW OR NO CLOUDS BELOW 12,000 FEET WITH NO
SIGNIFICANT WEATHER AND/OR OBSTRUCTIONS TO VISIBILITY.

* THESE STATIONS ARE NOT UNDER NWS QUALITY CONTROL. THEY ALSO MAY NOT
  REPORT WEATHER SUCH AS PRECIPITATION OR FOG.

ILZ001-002-007-009-015-016-024-281900-
NORTHWEST ILLINOIS

CITY           SKY/WX    TMP DP  RH WIND       PRES   REMARKS
MOLINE         PTSUNNY   85  73  67 SE6       30.16F HX  91
6HR MIN TEMP:  70; 6HR MAX TEMP:  86;

STERLING*      SUNNY     85  75  72 VRB5      30.17F HX  93
SAVANNA*       PTSUNNY   84  73  67 CALM      30.18S HX  90
$$

ILZ003-004-008-010-011-017-018-281900-
NORTH CENTRAL ILLINOIS

CITY           SKY/WX    TMP DP  RH WIND       PRES   REMARKS
ROCKFORD       MOSUNNY   83  70  64 VRB5      30.20F HX  87
6HR MIN TEMP:  68; 6HR MAX TEMP:  83;

ROCHELLE*      PTSUNNY   83  73  72 E3        30.19F HX  89
$$

ILZ005-006-012>014-019>023-281900-
NORTHEAST ILLINOIS

CITY           SKY/WX    TMP DP  RH WIND       PRES   REMARKS
CHICAGO-OHARE  MOSUNNY   82  68  62 E8        30.19F HX  85
6HR MIN TEMP:  72; 6HR MAX TEMP:  83;

CHICAGO-MIDWAY MOSUNNY   82  69  64 E9        30.19F HX  85
6HR MIN TEMP:  75; 6HR MAX TEMP:  82;

AURORA         PTSUNNY   87  74  64 NE6       30.18F HX  95
6HR MIN TEMP:  69; 6HR MAX TEMP:  87;

LANSING*       MOSUNNY   82  75  79 NE9       30.19F HX  88
JOLIET*        CLOUDY    85  73  67 NE3       30.17F HX  91
WAUKEGAN       CLOUDY    73  68  84 NE7       30.21F
6HR MIN TEMP:  69; 6HR MAX TEMP:  77;

DUPAGE AIRPORT MOSUNNY   84  71  65 NE9       30.18F HX  89
6HR MIN TEMP:  67; 6HR MAX TEMP:  85;

KANKAKEE*      TSTM      79  76  92 CALM      30.19F HX  83
WHEELING       SUNNY     80  68  66 E8        30.21F HX  83
6HR MIN TEMP:  70; 6HR MAX TEMP:  80;

MORRIS*        MOSUNNY   86  73  63 CALM      30.15F HX  93
ROMEOVILLE*    PTSUNNY   85  77  75 NE8       30.17F HX  95
$$

LMZ740>746-281900-
SOUTHERN LAKE MICHIGAN

STATION/POSITION SKY/WX   TEMP    WIND        PRES    VSBY  WAVE
                          AIR SEA DIR/SP/G                  HT/PER
                          (F)     (DEG/KT/KT) (MB)    (MI)  (FT/S)
SOUTHERN BUOY              72 75   50/ 10/ 10 1022.8          1
WILMETTE HARBOR            71 71   30/  6/  6   N/A           1
HARRISON CRIB              75      60/  5/  5   N/A
BURNHAM HARBOR             77      20/  6       N/A
CALUMET HARBOR             74      50/  8/  9 1022.6S
BURNS HARBOR               76      50/  9/ 12 1023.0F
MICHIGAN CITY              75      10/ 12/ 12   N/A
MICHIGAN CITY 6N           76 77   30/ 12/ 14   N/A           1/ 2
ST. JOSEPH                 75 75   10/ 12/ 14 1022.7S         1/ 2
$$

ILZ025>027-034>036-040-047-049-050-058-095>099-281900-
WEST-CENTRAL ILLINOIS

CITY           SKY/WX    TMP DP  RH WIND       PRES   REMARKS
QUINCY         PTSUNNY   79  71  76 CALM      30.16F HX  82
GALESBURG*     CLOUDY    85  73  68 S6        30.16F HX  92
MACOMB*        MOSUNNY   82  75  79 E5        30.19F HX  89
JACKSONVILLE*  LGT RAIN  82  76  81 CALM      30.16F HX  90
PITTSFIELD*    SUNNY     87  74  66 NE3       30.17F HX  96
$$

ILZ028>032-037-038-041>044-048-051>054-059>061-281900-
CENTRAL ILLINOIS

CITY           SKY/WX    TMP DP  RH WIND       PRES   REMARKS
PONTIAC        PTSUNNY   87  78  73 S8        30.17F HX  99
BLOOMINGTON    PTSUNNY   85  75  72 S7        30.19  HX  93
DECATUR        MOSUNNY   88  72  58 MISG      30.18F HX  94
PEORIA         CLOUDY    86  74  67 E3        30.16F HX  94
6HR MIN TEMP:  71; 6HR MAX TEMP:  86; 6HR PCP: TRACE;

LACON*         CLOUDY    85  73  67 SE5       30.15F HX  92
LINCOLN*       PTSUNNY   87  75  68 SE5       30.17F HX  97
SPRINGFIELD    PTSUNNY   87  74  64 CALM      30.16F HX  95
6HR MIN TEMP:  71; 6HR MAX TEMP:  90; 6HR PCP:  0.06;

TAYLORVILLE    MOSUNNY   87  72  61 SE6       30.17F HX  94
6HR MIN TEMP:  70; 6HR MAX TEMP:  87;

$$

ILZ033-039-045-046-055>057-062-063-281900-
EAST-CENTRAL ILLINOIS

CITY           SKY/WX    TMP DP  RH WIND       PRES   REMARKS
CHAMPAIGN      MOSUNNY   86  73  65 CALM      30.19F HX  93
RANTOUL*       CLOUDY    87  75  69 E3        30.19F HX  96
MATTOON        MOSUNNY   87  72  60 CALM      30.18F HX  93
PARIS*         SUNNY     87  75  66 CALM      30.19F HX  97
$$

ILZ079-100>102-281900-
SOUTHWEST ILLINOIS

CITY           SKY/WX    TMP DP  RH WIND       PRES   REMARKS
ALTON          PTSUNNY   86  72  62 VRB3      30.17F HX  92
BELLEVILLE     MOSUNNY   91  72  53 SE6       30.14F HX  98
CAHOKIA*       SUNNY     91  67  44 S6        30.15F HX  94
SPARTA*        MOSUNNY   87  75  67 E6        30.17F HX  96
$$

ILZ064>066-069>071-074>076-080>082-084>086-088>090-092>094-281900-
SOUTH-CENTRAL ILLINOIS

CITY           SKY/WX    TMP DP  RH WIND       PRES   REMARKS
CARBONDALE     MOSUNNY   89  74  60 VRB3      30.15F HX  98
6HR MIN TEMP:  71; 6HR MAX TEMP:  90;

EFFINGHAM*     PTSUNNY   87  74  66 CALM      30.19F HX  95
MARION         MOSUNNY   91  75  59 S7        30.16F HX 102
MT. VERNON     MOSUNNY   91  72  52 CALM      30.16F HX  98
CENTRALIA*     MOSUNNY   91  76  60 E5        30.16F HX 102
SALEM*         SUNNY     89  71  53 CALM      30.17F HX  95
METROPOLIS*    MOSUNNY   92  76  60 E3        30.15F HX 105
$$

ILZ067-068-072-073-078-083-087-091-281900-
SOUTHEAST ILLINOIS

CITY           SKY/WX    TMP DP  RH WIND       PRES   REMARKS
LAWRENCEVILLE  MOSUNNY   91  75  59 VRB5      30.17F HX 101
FLORA*         SUNNY     92  72  53 SE3       30.17F HX  99
FAIRFIELD*     MOSUNNY   90  76  63 CALM      30.15F HX 101
HARRISBURG*    MOSUNNY   91  74  58 CALM      30.15F HX 100
ROBINSON*      CLOUDY    87  76  69 NE3       30.18F HX  98
CARMI*         PTSUNNY   86  78  77 CALM      30.15F HX  99
$$

ABBREVIATIONS USED IN REMARKS
   TC - TEMPERATURE IN CELSIUS
  WCI - WIND CHILL INDEX
   HX - HEAT INDEX
  VSB - VISIBILITY
$$




USA.gov is the U.S. government's official web portal to all federal, state and local government web resources and services.